www.pogodaiklimat.ru

Погода и климат >> Архив погоды >> Россия >> Приморский край >> Партизанск


ПОГОДА в Партизанске

  • Прогноз погоды в Партизанске
  • Монитор погоды в Партизанске

АРХИВ ПОГОДЫ в Партизанске

Время (UTC), дата Ветер
(напр.,м/с)
 
Видим.   Явления Облачность Т
(С)
Тd
(С)
f
(%)
Тe
(С)
Тes
(С)
Комфортность P
(гПа)
Po
(гПа)
Тmin
(С)
Tmax
(С)
R
(мм)
R24
(мм)
S
(см)
18 16.01 СЗ 4
{15}
50 км 8/0
[Ac As]
-11.4 -21.9 41 -18 -18 1014.3 987.2
21 16.01 СЗ 5
{14}
50 км 8/0
[As op Cs]
-13.3 -25.0 37 -22 -22 1013.8 986.6 -13.3 0
00 17.01 СЗ 6-12
{16}
50 км 6/6 600 м
[Cu hum]
-15.2 -26.8 36 -25 -25 1014.9 987.5 -15.2
03 17.01 СЗ 7-14
{18}
50 км 1/1 600 м
[Cu hum]
-15.1 -32.2 22 -25 -24 1015.1 987.6
06 17.01 СЗ 7-15
{17}
50 км ясно -14.7 -32.1 21 -25 -24 1015.8 988.4
09 17.01 С 7-13
{15}
50 км ясно -16.0 -31.7 25 -27 -27 1018.6 991.0 -13.2
12 17.01 С 8-18
{18}
50 км ясно -16.6 -31.7 26 -28 -28 1020.6 992.8
15 17.01 С 6-11
{18}
50 км ясно -17.0 -31.0 29 -27 -27 1022.2 994.4
18 17.01 С 6-11
{15}
50 км ясно -16.7 -29.7 31 -27 -27 1023.0 995.2
21 17.01 С 6
{12}
50 км ясно -17.7 -29.3 36 -28 -28 1023.5 995.6 -17.6 0
00 18.01 С 6 50 км ясно -16.6 -28.9 34 -27 -26 1024.6 996.8 -18.3
03 18.01 СВ 5
{12}
50 км ясно -11.3 -25.8 29 -19 -17 1022.8 995.6
06 18.01 С 3
{10}
50 км ясно -7.1 -24.0 25 -12 -11 1021.8 995.0
09 18.01 СВ 6 50 км ясно -10.2 -25.0 29 -18 -18 1024.5 997.3 -7.0
12 18.01 С 5 50 км ясно -12.2 -25.4 32 -20 -20 1025.7 998.3
15 18.01 С 2 50 км ясно -13.1 -25.2 35 -18 -18 1025.8 998.3
18 18.01 С 3 50 км ясно -13.3 -24.9 37 -20 -20 1025.4 997.9
21 18.01 С 4 50 км ясно -15.1 -24.5 44 -23 -23 1024.8 997.1 -16.9 0
00 19.01 СВ 2 50 км ясно -14.7 -23.4 47 -20 -18 1024.3 996.7
03 19.01 В 2 50 км ясно -4.3 -24.3 19 -7 -3 1021.5 995.0
06 19.01 СВ 1 50 км 8/0
[Ci]
-2.3 -26.1 14 -3 -2 1018.9 992.7
09 19.01 Ю 1 50 км 4/0
[Cs]
-4.9 -23.8 21 -6 -6 1018.0 991.5 -1.8
12 19.01 С 1 50 км 8/0
[Cs]
-6.7 -20.5 32 -8 -8 1018.0 991.4
15 19.01 ЮЗ 1 50 км 10/0
[Cs]
-9.6 -21.2 38 -12 -12 1017.2 990.3
18 19.01 С 2 50 км 10/0
[As trans]
-10.3 -20.9 41 -15 -15 1015.6 988.7
21 19.01 СЗ 5
{10}
50 км 6/0
[Ac trans]
-8.5 -19.4 41 -16 -16 1014.2 987.4 -11.1 0
00 20.01 С 3
{10}
50 км ясно -9.0 -19.4 43 -14 -13 1013.8 987.0
03 20.01 СЗ 7-14
{15}
50 км 10/8 600 м
[Cu hum Cs]
-7.3 -20.4 34 -15 -15 1011.9 985.4
06 20.01 СЗ 8-12
{15}
50 км {снег} 8/3 1000 м
[Cu Sc Cs]
-9.0 -19.1 44 -18 -18 1011.9 985.2
09 20.01 СЗ 4-11
{16}
50 км 4/4 1000 м
[Cu Sc]
-10.6 -23.8 33 -17 -17 1014.0 987.1 -7.1 0.0
12 20.01 СЗ 3
{13}
50 км 10/6 1000 м
[Sc Cs]
-11.4 -23.5 36 -17 -17 1015.0 988.0
15 20.01 С 5 50 км 1/1 1000 м
[Sc]
-12.2 -23.0 40 -20 -20 1015.1 988.0
18 20.01 С 3 50 км 1/1 1000 м
[Sc]
-13.2 -22.1 47 -19 -19 1014.9 987.7
21 20.01 С 3 50 км ясно -14.7 -21.7 55 -21 -21 1014.5 987.1 -14.7 0
00 21.01 С 3 50 км ясно -15.0 -21.5 58 -22 -20 1014.7 987.3 -16.6
03 21.01 СВ 3 50 км ясно -8.5 -21.6 34 -14 -10 1012.5 985.9
06 21.01 СЗ 3 50 км ясно -5.5 -21.5 27 -10 -9 1010.3 984.1
09 21.01 С 3 50 км ясно -7.8 -21.6 32 -13 -13 1012.4 985.9 -5.3
12 21.01 С 5 50 км 1/1 1000 м
[Sc]
-9.6 -21.4 38 -17 -17 1013.6 986.9
15 21.01 С 4 50 км ясно -11.2 -23.6 35 -18 -18 1014.8 987.9
18 21.01 С 2 50 км ясно -13.6 -23.9 41 -18 -18 1015.5 988.4
21 21.01 С 2 50 км ясно -14.0 -23.9 43 -19 -19 1015.5 988.3 -14.6 0
00 22.01 С 3 50 км ясно -11.0 -23.2 36 -17 -16 1015.5 988.7
03 22.01 В 2 50 км 3/0
[Cc]
-6.2 -21.6 28 -10 -5 1013.9 987.5
06 22.01 ЮВ 1 50 км 3/1 1000 м
[Sc Cc]
-3.4 -19.6 27 -5 -3 1011.3 985.3
09 22.01 Ю 1 50 км 8/3 1000 м
[Sc Ac trans]
-5.2 -19.3 32 -7 -7 1012.0 985.8 -2.8
12 22.01 штиль 0 50 км 8/0
[Ac lent]
-6.5 -15.6 48 -7 -7 1011.4 985.1
15 22.01 СЗ 2 50 км 10/0
[Ac lent]
-7.1 -11.8 69 -11 -11 1011.0 984.6
18 22.01 СЗ 4 50 км ясно -4.4 -13.8 48 -10 -10 1010.4 984.3
21 22.01 С 4 50 км 3/0
[Ci fib]
-6.1 -16.5 44 -12 -12 1010.5 984.2 -8.6 0
00 23.01 СЗ 3 50 км 1/1 1000 м
[Cu hum]
-6.6 -16.3 46 -12 -11 1011.7 985.4
03 23.01 СЗ 5
{11}
50 км 8/8 1000 м
[Cu med, cong]
-5.3 -16.5 41 -12 -11 1012.0 985.8
06 23.01 С 8-15
{15}
50 км 4/4 1000 м
[Cu hum]
-6.0 -19.2 34 -14 -14 1013.3 986.9
09 23.01 С 6
{15}
50 км 3/3 1000 м
[Cu hum]
-8.2 -17.4 47 -16 -16 1016.3 989.7 -4.3
12 23.01 С 6-11
{12}
50 км 9/9 600 м
[Sc]
-9.8 -18.4 49 -18 -18 1018.6 991.8

 

Местоположение метеостанции Партизанск (Приморский край, Россия): широта 43.15 долгота 133.00 высота над уровнем моря 208 м.

В архиве по умолчанию представлена погода в Партизанске за последнюю неделю. Архивные данные за месяц целиком и за предыдущие месяцы, начиная с января 2011 года, Вы можете получить, выбрав интересующий диапазон дат из раскрывающегося списка и нажав кнопку "Ввод!".


*Определитесь, кто Вы:
робот инопланетянин человек

Внимание! Время в таблицах - всемирное. Для получения местного времени необходимо прибавить поправку, которая равна 10 ч.

Смотрите также архив погоды в соседних городах и на ближайших метеорологических станциях:

Погода в Находке (Приморский край, Россия) (42 км)
Погода в Многоудобном (Приморский край, Россия) (56 км)
Погода в Лазо (Приморский край, Россия) (71 км)
Погода в Преображении (Приморский край, Россия) (78 км)
Погода в Владивостоке (Приморский край, Россия) (89 км)
Погода на Мысе Назимова (Приморский край, Россия) (90 км)
Погода в Анучино (Приморский край, Россия) (91 км)
Погода в Лучегорске (Приморский край, Россия) (117 км)
Погода в Тимирязевском (Приморский край, Россия) (120 км)
Погода в Чугуевке (Приморский край, Россия) (129 км)

Пояснения к столбцам:

Ветер - указаны скорость ветра в м/с - средняя за 10 мин, порывы в срок и между сроками (в фигурных скобках) и направление, откуда дует ветер: С - северный, СВ - северо-восточный, В - восточный, ЮВ - юго-восточный, Ю - южный, ЮЗ - юго-западный, З - западный, СЗ - северо-западный.
Видимость - горизонтальная дальность видимости в метрах или километрах. При видимости от 1 до 10 км при отсутствии осадков обычно наблюдается дымка, при ухудшении видимости до 1 км и менее - туман. В сухую погоду видимость может ухудшаться дымом, пылью или мглою.
Явления - указаны атмосферные явления, наблюдавшиеся в срок или в последний час перед сроком; фигурными скобками обозначены явления, наблюдавшиеся между сроками (за 1-3 часа до срока); квадратными скобками обозначены град или гололедные отложения с указанием их диаметра в мм.
Облачность - указаны через наклонную черту общая и нижняя облачность в баллах и высота нижней границы облаков в метрах; квадратными скобками обозначены формы облаков: Ci - перистые, Cs - перисто-слоистые, Cc - перисто-кучевые, Ac - высококучевые, As - высокослоистые, Sc - слоисто-кучевые, Ns - слоисто-дождевые, Cu - кучевые, Cb - кучево-дождевые. Подробнее классификацию облаков см. в Атласе облаков (PDF).
T - Температура воздуха - температура, измеренная на высоте 2 м над землей.
Td - Температура точки росы - температура, при понижении до которой содержащийся в воздухе водяной пар достигнет насыщения.
f - Относительная влажность воздуха - влажноcть воздуха, измеренная на высоте 2 м над землей.
Te - Эффективная температура - температура, которую ощущает одетый по сезону человек в тени. Характеристика душности погоды. При расчете учитывается влияние влажности воздуха и скорости ветра на теплоощущения человека.
Tes - Эффективная температура на солнце - температура, которую ощущает человек, с поправкой на солнечный нагрев. Характеристика знойности погоды. Зависит от высоты солнца над горизонтом, облачности и скорости ветра. Ночью, в пасмурную погоду, а также при ветре 12 м/с и более поправка равна нулю.
P - Атмосферное давление - приведенное к уровню моря атмосферное давление.
Po - Атмосферное давление - измеренное на уровне метеостанции атмосферное давление.
Tmin - Минимальная температура - минимум температуры воздуха на высоте 2 м над землей.
Tmax - Максимальная температура - максимум температуры воздуха на высоте 2 м над землей.
R - Количество осадков - Количество выпавших осадков за период времени, мм. При наведении курсора мыши на число - период времени, за который выпало указанное количество осадков.
R24 - Количество осадков - Количество выпавших осадков за 24 часа, мм.
S - Снежный покров - Высота снежного покрова, см. При наведении курсора мыши на число - состояние снежного покрова и степень покрытия местности в баллах.